Flag for Canada Weather past 2 weeks in Qikiqtarjuaq, Nunavut Territory, Canada

Now
-17 °F

Passing clouds.


Feels Like: -17 °F
Forecast: -30 / -16 °F
Wind: 2 mph from North

Location: Broughton Island Airport

Current Time: Jan 31, 2015 at 7:38:56 AM

Latest Report: Jan 31, 2015 at 7:00 AM


Visibility: 9 mi

Pressure: 29.88 "Hg

Humidity: 69%

Dew point: -24 °F

Location of QikiqtarjuaqLocation

Historic Weather in Qikiqtarjuaq — Graph

°F

Qikiqtarjuaq temperature yesterday

Maximum temperature yesterday: -6 °F (at 11:00 AM)
Minimum temperature yesterday: -18 °F (at 5:00 PM)
Average temperature yesterday: -10 °F

Past Weeks' High & Low Weather Summary

 TemperatureHumidityPressure
High-4 °F (Jan 18, 1:00 AM)84% (Jan 18, 2:46 AM)30.08 "Hg (Jan 18, 2:46 AM)
Low-42 °F (Jan 26, 2:59 AM)48% (Jan 27, 2:00 PM)29.00 "Hg (Jan 18, 7:00 AM)
Average-22 °F68%29.73 "Hg
* Reported Jan 16 6:03 AM — Jan 31 6:00 AM, Qikiqtarjuaq, Weather by CustomWeather, © 2014

Note: Actual official high and low records may vary slightly from our data, if they occured in-between our weather recording intervals... More about our weather records

Advertising

Qikiqtarjuaq weather history for previous 24 hours

 ConditionsComfort  
Time TempWeatherWind HumidityBarometerVisibility
6:00 AM
Jan 31
-20 °FPassing clouds.9 mph68%29.86 "Hg9 mi
5:00 AM-26 °FClear.2 mph75%29.86 "Hg9 mi
4:00 AM-18 °FClear.2 mph83%29.87 "Hg9 mi
3:00 AM-22 °FClear.2 mph75%29.87 "Hg9 mi
2:00 AM-15 °FClear.2 mph76%29.88 "Hg9 mi
1:00 AM-13 °FOvercast.2 mph76%29.88 "Hg8 mi
12:03 AM-13 °FOvercast.3 mph76%29.89 "Hg9 mi
11:00 PM
Jan 30
-13 °FLight snow. Mostly cloudy.3 mph69%29.89 "Hg9 mi
10:00 PM-15 °FPassing clouds.2 mph76%29.89 "Hg9 mi
9:00 PM-15 °FPassing clouds.10 mph76%29.90 "Hg9 mi
8:00 PM-17 °FOvercast.6 mph69%29.90 "Hg9 mi
7:00 PM-15 °FPassing clouds.8 mph76%29.91 "Hg9 mi
6:00 PM-17 °FLight snow. Passing clouds.3 mph76%29.90 "Hg7 mi
5:00 PM-18 °FPassing clouds.No wind75%29.90 "Hg10 mi
4:00 PM-11 °FSnow flurries. Passing clouds.3 mph84%29.87 "Hg10 mi
3:00 PM-13 °FSnow flurries. Passing clouds.2 mph83%29.85 "Hg8 mi
2:00 PM-11 °FSnow flurries. Overcast.5 mph84%29.83 "Hg6 mi
1:00 PM-9 °FSnow flurries. Scattered clouds.6 mph77%29.81 "Hg10 mi
12:00 PM-6 °FSnow flurries. Scattered clouds.7 mph77%29.79 "Hg6 mi
11:00 AM-6 °FLight snow. Overcast.2 mph77%29.77 "Hg4 mi
10:00 AM-8 °FLight snow. Overcast.8 mph77%29.75 "Hg5 mi
9:00 AM-8 °FLight snow. Overcast.13 mph77%29.73 "Hg5 mi
8:00 AM-8 °FLight snow. Overcast.10 mph77%29.70 "Hg4 mi
7:00 AM-8 °FLight snow. Overcast.14 mph77%29.70 "Hg3 mi
Weather by CustomWeather, © 2014

See weather overviewHow to use our weather pages